Theta_e
312 311 310 310 310 311 311 310 310 311 313 313 312 312 313 315 316 315 315 315 316 317 317 318 318 318 318 318 318 318 318 318 318 318 319 320 322 323 324 325 326 327 328 328 328 329 330 331 329 329 329 328 328 328 327 327 326 326 326 325 325 326 326
313 312 311 311 310 309 308 308 308 309 311 312 312 310 309 310 311 310 309 309 310 311 312 313 313 315 315 316 316 316 316 315 315 315 316 317 318 318 320 322 323 325 327 327 327 328 329 330 329 329 329 329 329 329 328 328 328 328 327 326 326 325 325
314 315 314 313 312 309 307 307 307 308 309 310 311 310 308 307 306 306 306 305 306 306 307 308 308 309 311 312 313 313 312 312 311 312 313 314 315 316 317 318 320 322 324 326 327 327 328 329 329 329 328 328 329 329 328 328 328 328 328 328 327 326 326
314 316 315 314 314 311 308 306 307 307 309 310 311 311 309 308 308 307 307 307 306 306 306 307 308 310 311 312 312 311 310 309 309 309 310 311 312 313 314 316 317 318 320 322 323 324 326 328 328 328 328 328 328 328 328 328 328 328 328 328 328 328 327
314 315 315 313 312 310 308 307 306 306 308 311 312 313 311 310 311 311 310 309 309 309 308 308 310 311 310 310 309 308 308 307 308 308 308 308 309 310 312 313 314 315 316 317 318 319 322 324 326 327 327 327 328 328 327 327 328 327 328 328 328 328 328
315 315 315 313 311 309 308 307 307 307 307 309 311 312 312 311 313 314 313 313 313 311 310 309 310 309 308 308 308 308 307 307 307 307 307 307 307 308 309 310 311 312 313 313 314 316 317 319 322 324 325 325 326 327 327 327 327 327 327 327 328 328 327
316 316 316 315 312 311 311 309 307 306 307 307 308 309 311 312 313 314 315 314 314 312 310 310 309 307 306 308 308 308 308 307 307 307 307 307 306 307 307 307 308 309 310 311 312 313 314 316 319 321 322 323 324 325 326 326 327 327 327 327 327 328 328
316 316 316 315 314 313 312 312 310 308 307 308 309 310 312 313 313 314 315 314 313 311 310 309 307 306 306 308 308 308 308 308 307 307 306 306 306 306 306 306 306 307 307 308 310 311 312 314 316 318 319 321 323 324 325 325 326 326 327 326 327 327 328
315 315 315 314 314 314 314 313 312 311 309 309 310 312 313 314 314 314 314 313 312 311 309 307 306 306 306 307 308 308 307 307 307 306 306 306 306 305 305 305 305 306 306 306 307 309 310 312 314 315 317 320 321 323 324 325 326 326 326 326 326 327 327
315 315 315 314 314 314 314 314 313 312 311 310 311 312 313 314 314 313 312 311 311 309 307 306 306 306 306 306 306 306 307 307 306 306 306 306 305 305 305 305 305 305 305 305 306 307 308 310 311 313 315 317 319 321 323 323 325 326 325 325 326 325 325
316 315 315 314 314 315 314 314 314 313 312 311 311 313 313 313 313 312 311 309 308 307 306 306 306 307 306 306 306 305 306 306 305 305 305 305 305 304 304 304 305 305 305 305 305 305 306 307 309 310 311 313 315 318 321 322 323 324 324 324 324 324 324
316 316 316 315 315 315 315 315 314 313 314 312 311 313 313 313 312 311 309 308 307 307 306 307 307 307 306 306 306 306 305 305 305 305 305 304 304 304 304 304 304 304 304 304 304 305 305 306 307 308 309 310 311 313 317 319 321 323 324 324 324 324 324
318 316 317 316 316 316 315 315 314 314 314 314 312 313 313 313 311 309 308 307 307 307 307 307 307 307 306 306 306 306 305 305 305 305 305 304 304 304 304 304 304 304 304 304 304 304 305 305 306 306 307 308 309 311 314 316 319 320 321 323 324 324 324
319 317 317 317 316 316 315 315 315 314 315 314 313 313 314 312 309 308 308 307 307 307 308 308 307 307 306 306 306 305 305 305 305 304 305 305 304 304 304 304 304 304 304 304 304 304 304 305 305 305 305 306 307 309 312 314 316 317 317 319 321 322 322
319 318 317 317 317 316 316 315 314 315 315 314 314 314 313 310 309 308 308 307 307 308 308 308 307 306 306 305 305 305 305 305 305 305 304 305 305 304 304 303 303 303 304 304 304 304 304 304 304 304 304 304 305 307 309 312 314 315 316 316 317 319 319
320 318 317 317 316 315 315 315 315 315 315 314 314 313 311 309 309 309 308 308 308 308 308 307 307 306 305 305 305 304 304 304 304 304 304 304 304 304 304 303 303 303 303 304 304 304 304 304 303 303 304 304 305 306 307 309 312 314 314 315 315 316 318
319 318 317 317 316 316 316 316 315 315 314 314 313 311 309 309 309 309 308 308 308 308 307 306 306 305 305 304 304 304 304 304 304 303 304 304 304 304 304 304 303 303 303 303 303 303 303 303 303 303 303 304 305 305 305 307 309 309 309 310 311 312 314
318 318 317 317 316 316 316 316 315 314 314 314 312 310 309 310 309 309 309 309 308 307 306 305 305 304 304 303 304 303 303 303 303 303 303 303 303 303 304 303 303 303 303 302 303 303 303 303 303 303 303 303 303 303 304 304 305 305 305 307 308 308 310
318 318 317 317 316 316 316 315 314 314 314 313 311 310 310 310 309 309 309 308 307 306 305 304 304 303 303 303 303 302 302 302 301 301 301 301 301 302 302 303 302 302 303 303 303 303 303 303 303 303 303 303 303 303 303 304 303 303 304 305 305 306 307
319 318 318 317 317 316 316 315 314 313 313 312 310 310 310 310 310 309 308 307 306 305 304 304 303 303 302 302 302 301 301 300 300 300 299 299 299 299 300 300 301 301 302 302 302 302 302 303 303 303 303 303 303 303 303 303 303 303 303 303 304 305 305
319 318 317 317 316 316 315 314 313 313 312 310 310 310 310 310 309 308 307 306 305 304 303 303 302 302 301 300 300 300 299 299 299 299 299 299 298 299 299 299 299 299 299 300 301 301 302 302 302 303 303 303 302 302 302 302 302 302 302 303 303 303 304
317 317 316 316 316 315 314 314 313 312 311 310 310 310 310 309 308 307 306 304 304 303 302 302 301 300 300 299 299 299 298 298 299 299 299 299 299 298 298 298 298 298 298 298 299 299 300 300 301 301 301 301 301 301 301 301 301 302 302 302 302 303 303
316 315 314 314 314 314 314 313 312 311 311 310 310 310 309 308 307 306 305 303 303 302 302 301 300 299 299 298 298 298 298 298 298 298 298 298 298 298 298 298 298 298 298 298 298 298 298 298 298 299 299 300 300 300 300 300 300 300 301 301 301 302 302
315 314 312 312 313 313 313 313 312 311 311 310 310 310 309 307 306 305 304 303 302 302 301 300 299 298 297 296 295 295 296 297 297 297 298 297 297 297 297 297 297 297 297 298 298 298 297 297 297 297 297 298 298 299 299 299 300 300 300 300 300 300 301
315 313 313 314 314 314 313 313 312 311 311 311 310 309 308 306 305 304 303 302 302 301 300 299 298 296 295 294 293 293 294 295 295 296 296 296 296 296 296 296 296 296 296 296 297 297 297 297 297 297 297 297 297 297 298 298 299 299 299 300 300 300 300
315 314 315 315 315 315 313 312 312 311 311 310 309 308 306 305 304 303 302 301 301 300 298 297 296 294 293 293 293 293 293 293 294 294 295 295 295 295 295 295 295 295 295 296 296 296 296 296 296 296 296 296 296 296 297 297 297 298 299 299 299 299 299
315 314 315 314 313 313 312 312 311 311 310 309 308 306 305 304 303 302 301 300 299 298 296 295 294 293 294 294 293 292 293 293 293 294 294 294 294 294 294 294 294 294 295 295 295 295 295 295 295 295 295 295 295 296 296 296 296 297 298 298 299 299 299
314 313 313 313 313 312 312 312 311 310 309 308 307 305 304 303 302 301 300 299 297 296 295 294 294 294 294 293 292 292 292 293 293 293 294 294 294 294 294 294 294 294 294 294 294 294 294 294 294 295 294 295 295 295 295 295 296 296 297 298 298 299 299
312 312 312 313 313 312 312 311 310 309 308 306 305 304 303 302 301 300 299 297 296 295 295 295 295 294 293 292 291 291 292 292 293 293 293 293 293 293 293 293 293 293 293 293 293 293 293 293 294 294 294 294 294 294 294 294 295 295 296 296 297 298 298
311 311 312 312 311 311 311 310 309 308 306 304 303 302 302 301 299 298 298 297 296 295 295 295 294 292 291 291 291 291 291 292 292 293 293 293 293 293 293 293 293 293 293 293 293 293 293 293 293 293 293 293 293 293 293 294 294 294 295 295 296 296 297
310 311 312 311 311 310 310 308 307 306 305 303 302 301 300 299 298 298 297 297 296 295 295 294 292 291 291 291 291 291 291 291 292 292 292 292 292 292 292 292 292 292 292 292 293 292 292 292 293 293 293 292 292 293 293 293 294 294 295 295 295 296 296
310 310 310 310 309 308 307 306 305 304 303 302 300 299 298 298 298 298 297 296 296 296 294 293 291 291 291 291 291 291 291 291 291 291 291 291 291 291 291 291 291 291 292 292 292 292 292 292 292 292 292 292 292 292 292 292 293 293 294 294 295 295 295
308 308 307 307 306 306 305 304 303 301 300 299 298 298 298 298 298 298 297 296 296 295 293 292 291 291 290 291 291 291 291 290 291 291 291 291 291 290 290 290 290 290 290 290 290 291 291 291 291 291 291 291 291 291 292 292 292 293 293 294 294 295 295
305 305 305 305 304 303 302 301 300 299 298 298 298 298 298 298 298 298 297 296 296 294 293 292 291 290 290 291 291 291 291 290 290 290 290 290 290 290 290 289 289 289 289 289 289 290 290 290 290 290 290 290 290 291 291 291 292 292 292 293 294 295 295
304 303 303 302 301 299 299 298 298 298 298 298 298 299 299 298 298 297 296 296 295 294 293 292 290 290 291 291 291 291 290 290 290 290 290 290 289 289 289 289 289 289 289 289 289 289 289 289 289 289 289 290 290 290 290 291 291 292 292 293 293 294 295
303 301 299 298 297 298 298 298 298 298 299 298 298 298 298 298 297 296 296 295 295 294 293 292 290 290 290 291 291 291 290 290 290 289 289 289 289 289 289 289 289 289 289 289 289 289 289 289 289 289 289 289 289 289 290 290 290 291 292 292 293 293 294
300 298 297 297 297 297 298 298 298 298 298 298 298 298 298 297 296 296 296 295 294 293 293 292 290 290 290 290 290 290 290 290 289 289 289 289 289 289 289 289 289 289 289 289 289 289 289 289 289 289 289 289 289 289 289 289 290 290 291 291 292 292 293
Wind_Speed
14 12 10 9 8 7 6 5 5 5 4 4 5 4 3 2 2 1 0 0 1 2 2 2 2 3 4 5 5 6 7 9 10 10 9 10 9 9 9 9 9 10 10 9 8 6 3 4 8 12 15 14 13 14 15 17 21 23 25 27 28 28 28
13 12 12 11 10 9 7 7 7 6 5 4 4 4 5 5 4 4 4 4 5 5 5 4 4 3 4 4 5 5 7 8 9 8 8 9 9 9 9 9 8 10 10 10 9 8 6 5 5 6 11 16 17 19 18 15 15 17 20 23 26 28 29
15 14 14 14 13 11 9 9 7 6 6 5 3 3 4 4 5 5 5 5 5 6 5 6 6 6 6 6 7 7 8 8 8 8 7 8 8 8 8 9 9 10 8 7 7 8 7 7 6 4 7 9 11 19 23 20 18 19 20 21 22 25 28
18 17 16 16 15 14 12 10 8 7 6 5 4 3 2 2 2 2 2 3 5 6 7 8 8 8 8 8 9 9 9 9 9 8 8 7 8 8 8 8 9 9 7 6 9 12 9 6 6 5 7 10 10 16 22 23 23 24 24 24 23 24 25
20 20 19 19 18 16 14 12 10 8 7 6 5 4 3 2 1 1 2 3 5 7 8 9 9 9 10 10 10 10 10 10 10 9 9 8 9 9 9 8 9 8 8 9 11 13 12 12 10 6 7 12 10 13 19 21 22 23 23 22 22 23 23
21 21 21 20 19 17 15 13 12 11 9 8 7 6 4 3 2 3 4 5 5 7 8 9 10 12 11 10 10 10 11 11 11 11 10 10 10 10 9 9 9 9 10 10 11 12 13 15 13 8 10 13 9 12 18 18 18 21 23 23 23 23 23
23 22 22 22 21 19 16 15 13 12 11 10 8 6 5 4 4 5 6 5 6 7 8 10 11 11 11 10 10 11 11 11 11 11 11 11 11 11 11 10 11 11 11 11 11 12 13 14 14 11 11 12 11 13 14 15 17 17 19 22 21 21 22
24 23 23 23 22 20 18 16 15 13 12 11 9 7 6 6 7 7 7 7 7 7 9 10 10 10 10 10 10 10 10 10 10 10 11 11 11 12 12 12 12 11 12 12 11 11 11 11 13 14 13 10 8 8 8 11 15 15 19 22 21 20 21
25 24 24 24 23 22 20 18 16 15 14 12 9 9 9 9 8 8 8 7 7 8 10 10 9 10 11 11 11 10 9 8 9 9 10 10 10 11 12 13 13 12 12 12 12 11 11 11 11 13 13 11 8 6 5 6 7 10 16 19 18 19 20
27 26 26 26 25 24 22 19 18 17 15 13 11 11 11 10 10 9 8 8 9 10 10 9 9 10 12 12 12 12 10 9 9 9 10 10 11 12 12 13 12 12 12 12 12 11 11 11 11 11 12 12 11 8 6 6 5 6 11 13 15 18 18
28 28 28 27 26 25 24 21 20 19 17 14 14 13 12 11 11 10 9 10 11 11 11 9 10 11 12 12 12 12 12 11 11 11 11 12 12 13 13 12 12 12 13 13 13 12 12 12 12 12 12 12 12 11 9 8 8 9 13 15 16 18 19
29 29 29 29 27 26 26 24 22 21 18 17 16 15 14 13 12 11 11 10 11 11 10 10 11 12 13 13 13 12 13 13 13 13 12 13 13 14 14 13 13 13 13 13 13 12 12 12 12 13 13 13 13 13 13 11 9 11 15 15 16 19 22
30 31 31 30 29 28 27 25 23 22 21 19 19 18 17 15 14 12 10 10 10 9 9 10 11 13 13 13 13 13 14 14 14 14 15 15 14 14 15 15 15 15 15 14 14 12 12 12 12 13 13 14 13 12 14 14 9 11 18 18 19 23 25
32 32 32 31 30 29 27 26 25 24 23 22 21 20 18 16 14 11 9 9 9 8 9 11 12 13 13 13 13 14 14 14 15 16 16 16 16 15 16 17 18 17 17 16 15 13 13 13 13 14 14 14 14 12 13 14 11 11 18 21 19 20 22
34 34 33 32 31 29 28 27 25 25 24 23 22 21 19 16 12 10 9 8 7 8 10 11 11 12 12 12 12 12 13 14 15 16 17 17 17 17 18 19 20 19 18 17 16 15 15 14 14 16 16 15 15 14 12 14 14 11 16 20 20 20 20
36 36 35 34 33 31 29 27 26 25 25 24 23 20 17 14 11 9 8 8 7 9 10 10 10 10 10 11 11 11 12 13 15 16 17 18 18 19 19 20 20 20 19 18 18 18 17 16 16 16 17 15 15 14 12 13 14 13 14 18 18 18 18
38 37 37 36 34 32 30 27 26 26 25 24 22 19 15 13 11 9 9 8 8 9 9 8 9 10 10 11 11 12 13 14 15 16 17 17 18 19 19 19 20 20 20 19 21 21 19 18 18 17 16 16 15 15 14 12 13 14 15 17 18 18 18
38 38 38 36 34 33 30 28 26 26 25 23 20 17 15 13 11 10 9 9 9 8 7 8 9 10 11 12 13 14 15 16 17 18 19 19 18 18 19 20 21 21 21 21 21 21 20 19 19 18 17 17 16 17 17 15 15 16 16 17 21 22 20
38 38 37 36 34 32 30 27 26 26 25 22 18 16 15 13 11 10 9 9 8 7 7 8 9 10 11 12 13 14 15 17 18 19 20 21 20 19 19 19 20 20 20 21 21 21 21 21 20 19 18 18 17 16 17 17 17 17 16 18 21 23 22
39 39 38 36 34 32 29 27 26 25 23 19 17 16 14 12 11 10 9 8 6 7 7 7 8 9 10 11 13 14 16 17 18 19 20 21 21 21 21 21 20 20 20 20 21 21 21 21 20 20 19 18 17 16 17 18 19 17 16 17 20 22 22
38 37 36 35 33 31 29 27 25 24 20 18 16 15 13 12 11 9 7 6 5 6 6 6 7 8 10 11 13 14 16 17 19 20 20 21 21 21 22 23 23 23 23 22 22 22 22 21 21 22 21 20 20 21 20 20 20 19 18 18 19 21 22
30 32 34 35 34 32 29 26 24 22 19 17 15 14 13 12 10 8 6 5 4 4 5 6 7 8 10 12 14 15 17 18 20 21 22 22 22 22 22 23 24 24 24 24 23 23 23 23 24 25 25 24 24 24 24 22 21 20 19 18 18 20 20
25 27 29 30 30 29 27 24 23 21 18 16 15 14 13 12 9 7 5 4 4 5 5 6 7 9 11 14 16 18 19 20 21 21 23 23 24 24 23 24 24 24 24 24 24 24 25 25 26 27 27 28 27 26 26 24 23 21 20 18 18 19 18
23 23 22 22 23 23 23 22 21 20 18 16 15 15 13 11 9 7 5 5 5 5 5 6 9 12 14 16 17 19 20 22 22 22 23 23 24 24 24 24 24 24 25 25 25 26 26 27 27 27 28 28 28 28 27 26 25 23 21 20 20 20 19
23 23 24 24 25 24 23 23 22 20 18 17 16 14 13 11 9 7 6 6 6 5 6 9 12 14 15 17 18 19 20 22 23 24 25 25 26 26 26 26 26 26 26 26 27 27 27 28 28 28 29 29 29 29 29 29 29 27 24 22 22 22 22
27 28 29 29 29 27 26 25 23 21 18 17 15 14 13 11 9 7 7 6 4 5 8 11 13 15 16 18 20 21 22 22 24 26 27 28 28 27 27 28 28 28 27 26 26 27 27 28 29 29 30 30 30 30 30 31 31 31 30 28 26 26 26
30 31 31 30 29 28 27 25 23 20 18 17 15 14 13 11 9 7 6 4 4 7 10 12 14 15 16 19 22 23 24 25 26 27 28 28 28 28 28 28 29 29 28 27 27 26 27 28 28 29 30 30 30 30 30 30 30 30 32 33 32 32 32
31 32 32 31 29 28 28 27 24 21 18 17 16 15 13 10 8 6 5 4 5 8 10 13 14 15 17 20 23 25 26 28 29 29 29 29 29 29 29 29 30 30 29 29 28 27 27 27 28 29 30 30 30 30 31 30 29 29 30 32 33 35 35
32 34 34 33 33 32 30 27 24 21 18 17 16 14 12 9 7 5 4 4 6 8 10 12 13 15 18 22 25 26 28 29 30 29 29 29 29 30 29 29 30 31 31 30 29 27 27 27 28 30 30 31 31 31 33 32 30 31 31 32 33 34 34
32 35 36 35 34 32 29 25 22 20 19 18 15 13 10 7 5 4 5 5 5 8 10 12 14 17 21 24 26 27 29 29 29 29 29 29 29 29 29 29 29 30 31 30 29 28 27 27 29 30 30 30 30 31 33 32 31 31 32 32 34 35 35
33 36 37 36 34 30 26 24 22 19 18 16 13 10 7 5 4 5 5 5 6 9 11 12 15 20 24 26 27 28 29 29 29 29 29 29 29 28 28 28 27 28 30 30 29 28 27 27 29 30 29 30 31 32 32 31 31 31 31 31 32 32 33
36 38 37 35 32 28 24 21 19 16 13 11 9 7 5 4 5 6 5 5 7 10 12 14 18 23 26 28 28 28 28 28 29 29 29 29 28 28 27 28 27 28 29 30 30 30 30 30 32 32 30 30 32 33 32 31 33 33 32 31 32 32 33
31 31 30 28 25 23 21 18 16 14 11 8 6 5 5 5 6 6 6 7 9 10 12 16 21 26 28 29 28 28 28 28 29 29 29 28 28 29 29 31 31 31 31 32 32 33 33 33 34 34 33 33 34 33 31 31 32 32 33 33 33 33 34
23 22 23 23 22 20 19 17 15 13 10 7 5 4 6 7 7 7 8 9 11 12 14 19 24 28 30 30 29 28 28 28 28 29 29 29 30 31 32 32 33 32 31 32 32 33 34 34 35 36 37 37 37 35 33 33 33 34 35 35 34 33 32
24 22 22 23 23 20 17 15 12 10 8 5 4 5 7 9 9 9 9 11 13 14 16 20 25 28 30 30 29 28 28 28 27 28 30 30 30 32 32 32 33 33 32 33 33 34 35 36 36 37 38 38 37 36 35 35 34 33 33 32 31 30 30
28 27 24 23 21 18 15 12 9 7 6 5 5 7 9 10 9 9 10 13 15 17 17 20 25 28 30 32 31 30 28 27 27 28 30 32 33 35 35 35 36 35 35 35 36 36 37 37 37 38 39 39 38 38 37 37 35 33 32 31 30 30 30
28 26 24 23 21 18 15 11 9 8 6 6 7 8 9 9 8 9 12 15 17 18 19 22 25 29 31 32 32 31 29 28 28 28 31 33 35 36 36 36 36 37 37 38 39 39 39 40 40 40 41 41 40 39 38 37 35 33 32 32 31 30 30
Wind_Direction
197 189 185 190 192 196 196 191 180 155 131 112 102 101 125 158 187 203 174 89 84 83 78 68 32 18 21 25 23 21 20 22 29 38 36 31 27 10 357 355 345 331 314 295 276 268 275 284 292 292 286 285 287 284 279 275 272 268 267 266 264 261 259
203 195 190 198 201 201 201 197 187 167 155 144 120 103 104 112 114 99 81 74 72 71 71 70 60 38 22 18 16 12 10 16 21 24 27 29 30 20 7 360 350 339 330 319 306 287 271 278 288 289 293 300 297 288 285 286 283 279 276 274 272 267 264
201 198 198 203 206 208 207 202 196 181 169 163 151 134 123 117 110 96 81 70 56 49 49 47 43 34 26 19 13 7 3 6 6 4 10 12 15 19 15 11 7 360 343 327 324 312 288 273 274 279 294 302 299 290 290 290 286 286 286 284 282 276 269
202 202 203 203 206 210 211 207 205 201 192 181 177 174 167 149 128 105 73 49 28 17 13 15 16 13 8 0 355 352 349 353 354 351 350 348 352 0 6 11 12 6 352 333 330 325 314 290 282 288 289 286 281 283 290 294 293 291 288 285 285 281 276
205 208 208 208 210 212 212 212 213 215 214 208 203 204 209 216 216 287 327 344 354 359 358 359 359 355 352 349 348 350 351 353 352 352 351 347 347 349 352 356 356 353 346 337 335 330 325 315 306 295 293 297 284 276 287 294 294 291 287 285 282 280 280
208 213 214 215 217 218 216 215 218 223 224 224 224 221 220 236 254 278 300 313 327 339 345 346 344 343 348 355 358 359 360 360 358 358 359 356 354 350 343 336 332 335 336 335 335 332 328 326 322 314 307 306 292 283 292 293 289 289 288 285 282 279 278
209 214 219 222 223 223 223 222 225 230 231 233 238 235 231 241 255 267 278 288 304 321 332 334 333 339 348 353 354 355 357 358 359 359 357 355 353 350 344 334 325 323 325 328 330 329 330 329 325 322 319 313 296 286 289 286 283 284 285 286 286 281 277
211 215 220 225 226 227 228 228 230 233 236 239 240 241 240 247 257 260 261 268 287 306 319 322 326 339 344 343 341 342 344 345 348 351 352 351 350 348 347 342 333 326 321 321 321 322 326 327 322 319 319 315 302 291 286 283 277 271 276 283 286 282 277
214 216 219 223 228 229 230 231 232 234 239 239 236 236 240 246 252 252 255 268 286 303 311 315 326 338 338 336 334 332 335 335 336 341 343 343 344 343 342 339 335 332 328 323 316 313 314 317 320 320 316 312 308 300 295 289 272 269 279 283 285 286 282
215 217 219 222 226 229 230 232 233 233 235 237 235 234 237 241 244 250 263 278 292 304 310 317 329 334 333 333 332 330 332 329 327 331 333 333 335 335 335 333 330 330 330 327 319 312 308 307 309 313 313 311 310 305 298 293 277 275 286 287 286 289 289
218 219 221 224 227 228 228 230 230 230 231 233 234 233 234 237 242 252 269 283 295 303 310 317 325 326 327 329 330 328 327 324 323 324 325 326 329 330 331 329 325 324 326 326 321 314 309 305 303 304 306 308 309 305 300 296 287 281 284 282 278 284 292
221 222 223 225 226 226 228 228 227 227 228 229 231 231 233 236 243 255 269 283 295 301 306 313 317 319 322 324 324 324 322 318 316 317 320 323 326 328 328 327 325 324 324 323 320 318 317 313 310 307 306 306 309 308 304 299 290 287 287 282 278 284 291
223 225 226 226 226 226 226 226 225 224 224 225 226 228 231 237 244 254 268 282 291 296 302 307 309 312 316 318 318 317 316 314 312 314 319 322 324 325 326 326 325 323 323 323 321 322 323 321 319 315 312 310 310 311 309 301 293 291 293 293 293 291 291
223 226 226 226 226 225 224 224 224 222 221 221 222 222 226 233 239 248 264 278 286 292 296 299 302 306 310 312 314 315 314 313 313 315 319 320 322 322 323 323 322 321 321 319 319 321 320 318 318 315 314 314 310 310 311 304 298 295 294 297 301 301 301
223 225 226 225 224 223 223 222 221 219 217 218 218 218 222 225 228 238 255 266 274 283 288 291 294 299 302 306 311 314 316 316 315 317 317 317 318 318 318 318 318 319 318 315 314 316 315 312 314 314 313 314 310 307 308 303 299 296 295 297 300 304 309
223 224 224 223 222 221 221 220 218 216 214 213 213 214 216 215 216 228 240 247 258 270 277 280 284 289 294 300 307 309 313 314 315 317 317 316 315 313 312 313 314 315 314 311 310 310 310 308 308 309 308 310 309 304 306 305 301 302 302 301 303 307 311
222 223 223 222 221 220 219 218 216 214 211 209 209 209 208 208 212 221 227 234 246 256 262 268 277 286 292 299 304 306 308 309 309 311 312 313 314 310 307 307 310 311 308 305 305 305 305 304 305 305 303 303 304 302 304 304 301 308 311 304 303 304 306
221 222 223 222 221 219 217 215 214 211 208 206 206 205 203 204 210 217 223 232 239 244 255 268 278 288 295 300 303 304 305 305 305 305 305 306 307 306 303 303 304 304 302 300 300 300 300 301 301 300 296 296 295 295 298 298 299 304 305 299 297 297 298
221 223 223 222 221 218 215 213 211 207 205 205 204 203 202 204 210 216 222 228 237 249 264 277 286 292 297 299 301 301 301 302 302 303 303 303 302 300 300 300 299 298 297 296 295 295 296 297 296 295 294 293 292 292 292 296 300 300 296 294 294 294 293
223 223 222 221 219 216 213 211 207 203 202 204 203 202 203 206 210 214 219 227 246 266 276 284 290 293 297 299 301 302 303 303 303 302 302 301 299 297 296 296 295 293 292 291 291 292 292 292 291 290 290 290 290 290 290 291 294 294 294 294 293 292 292
223 220 219 217 215 213 209 206 203 201 200 201 203 205 207 208 208 209 218 237 259 269 276 282 287 294 302 306 308 308 307 306 304 302 300 298 297 296 295 295 294 292 291 288 286 286 286 287 288 286 285 285 287 288 288 287 286 284 286 288 288 290 293
226 219 216 212 207 205 203 200 198 199 199 200 203 207 209 209 207 210 223 243 252 255 262 275 292 306 313 316 316 313 310 306 303 300 298 296 296 294 294 294 293 293 292 289 285 284 282 282 283 283 282 283 284 285 285 284 281 279 278 279 280 284 289
233 223 212 203 197 196 195 196 197 197 197 200 203 205 207 208 211 219 228 234 235 242 257 280 305 317 322 321 318 313 309 305 301 298 297 296 295 293 293 292 292 291 290 287 285 284 283 283 282 281 280 280 279 280 280 278 277 276 274 272 271 275 280
228 217 203 192 191 194 194 196 199 198 197 199 201 204 208 211 216 221 224 227 234 246 271 300 315 321 323 323 321 317 311 306 302 298 297 296 295 295 294 292 291 290 287 286 284 283 283 284 283 282 280 278 276 275 274 274 273 272 271 269 267 268 268
212 205 199 194 195 199 199 198 198 198 197 197 200 205 210 214 216 219 225 231 240 262 295 313 320 323 326 329 331 327 318 310 305 301 298 297 296 296 294 292 290 287 285 284 283 282 281 281 281 281 280 278 276 273 271 270 270 269 267 266 267 265 262
205 201 201 196 193 194 195 195 196 196 194 195 200 206 210 214 216 221 227 231 250 294 316 320 321 325 327 331 333 329 321 315 308 303 300 297 295 294 292 290 288 285 283 281 279 279 278 279 280 280 279 278 276 274 271 268 267 267 265 264 264 263 262
204 199 197 191 186 186 188 192 195 194 191 193 199 205 208 212 216 220 227 241 288 319 325 322 322 325 325 325 327 324 319 313 307 303 300 297 294 292 289 288 285 283 282 280 278 277 277 278 279 278 277 277 275 274 273 270 267 266 265 262 260 261 263
198 193 188 183 181 184 189 192 191 188 189 194 200 205 207 209 212 217 234 272 308 324 329 326 323 322 319 321 323 321 316 311 305 301 298 295 293 291 289 287 285 283 282 280 278 277 276 276 276 276 275 275 274 274 272 269 267 265 263 261 260 260 262
194 187 182 179 180 184 188 189 186 184 186 191 195 198 199 203 210 226 254 285 310 323 327 325 320 317 319 323 324 321 315 309 303 298 295 293 291 290 289 286 284 283 281 279 278 277 276 275 275 274 274 274 275 275 272 270 268 265 263 262 261 261 262
189 182 178 177 179 182 184 184 182 182 184 185 187 189 192 199 220 253 269 286 309 319 320 319 318 320 325 328 325 320 314 308 302 297 294 292 291 289 288 286 284 282 280 279 279 278 277 276 273 271 272 274 275 274 273 273 272 268 265 265 264 263 263
184 179 177 177 178 177 178 177 176 178 182 182 181 183 189 205 241 262 269 283 305 312 312 316 324 328 330 330 326 320 314 308 302 298 295 293 291 290 288 287 284 281 279 278 278 278 277 275 272 270 271 274 275 272 272 275 275 272 270 268 267 265 264
183 180 175 172 169 165 164 165 165 168 173 173 171 179 196 228 250 255 261 281 297 305 311 320 330 333 333 332 328 321 315 308 302 299 297 296 294 291 289 288 285 282 280 279 278 277 276 274 271 271 271 273 273 271 271 273 273 273 272 270 267 266 265
177 169 160 155 152 150 150 153 155 157 160 160 166 188 222 244 251 250 258 278 291 301 313 325 334 337 336 333 327 321 315 307 302 300 298 297 295 293 291 289 287 285 282 281 279 277 276 272 270 271 270 269 268 269 272 273 271 272 273 271 269 267 265
152 144 142 142 140 140 141 143 147 151 154 162 180 218 245 250 251 252 263 279 293 303 315 328 337 339 336 332 327 321 313 306 302 299 298 295 293 292 291 290 289 288 285 282 279 277 275 273 271 271 269 266 266 268 271 272 271 271 270 268 267 266 263
142 144 142 135 131 131 134 136 141 148 157 173 203 239 249 248 248 256 271 289 299 303 313 327 336 338 336 333 328 322 313 306 303 299 295 293 291 290 289 288 288 287 285 283 280 278 277 275 273 271 269 267 267 268 268 269 270 269 266 264 264 262 259
145 144 136 126 123 127 134 140 148 159 173 194 214 232 241 245 251 267 287 299 301 301 309 323 331 334 334 333 329 323 314 307 303 298 291 288 288 288 287 287 287 287 286 284 282 280 278 276 273 270 269 268 268 267 266 266 265 264 262 261 260 259 257
140 134 128 126 127 132 139 150 162 171 185 205 220 235 246 252 266 283 293 297 298 300 308 319 326 329 331 331 328 322 315 308 303 297 292 288 288 288 288 289 289 289 289 287 285 282 280 277 274 272 270 269 267 265 264 261 259 257 256 254 253 252 251